Flag for Germany Weather past 2 weeks in Laatzen, Lower Saxony, Germany

Now
52 °F

Overcast.


Feels Like: 51 °F
Forecast: 46 / 54 °F
Wind: 3 mph from South

Location: Hannover

Current Time: Oct 24, 2014 at 9:04:06 AM

Latest Report: Oct 24, 2014 at 8:00 AM


Visibility: 9 mi

Pressure: 30.18 "Hg

Humidity: 84%

Dew point: 47 °F

Location of LaatzenLocation

Historic Weather in Laatzen — Graph

°F

Laatzen temperature yesterday

Maximum temperature yesterday: 55 °F (at 1:00 PM)
Minimum temperature yesterday: 45 °F (at 9:00 AM)
Average temperature yesterday: 50 °F

Past Weeks' High & Low Weather Summary

 TemperatureHumidityPressure
High73 °F (Oct 19, 3:00 PM)99% (Oct 18, 12:00 AM)30.21 "Hg (Oct 18, 12:00 AM)
Low45 °F (Oct 23, 9:00 AM)51% (Oct 14, 3:00 PM)29.44 "Hg (Oct 21, 6:00 PM)
Average57 °F84%29.88 "Hg
* Reported Oct 9 7:00 AM — Oct 24 7:00 AM, Laatzen, Weather by CustomWeather, © 2014

Note: Actual official high and low records may vary slightly from our data, if they occured in-between our weather recording intervals... More about our weather records

Advertising

Laatzen weather history for previous 24 hours

 ConditionsComfort  
Time TempWeatherWind HumidityBarometerVisibility
7:00 AM
Oct 24
52 °FOvercast.5 mph83%30.18 "Hg9 mi
6:00 AM52 °FOvercast.3 mph85%30.18 "Hg9 mi
5:00 AM51 °FOvercast.3 mph87%30.18 "Hg9 mi
4:00 AM51 °FOvercast.3 mph86%30.19 "Hg9 mi
3:00 AM52 °FOvercast.3 mph86%30.19 "Hg9 mi
2:00 AM52 °FOvercast.3 mph85%30.20 "Hg9 mi
1:00 AM52 °FOvercast.3 mph84%30.21 "Hg9 mi
12:00 AM52 °FOvercast.1 mph86%30.20 "Hg12 mi
10:00 PM
Oct 23
53 °FOvercast.3 mph83%30.21 "Hg12 mi
9:00 PM53 °FOvercast.2 mph83%30.21 "Hg11 mi
8:00 PM52 °FOvercast.2 mph87%30.21 "Hg9 mi
7:00 PM52 °FOvercast.1 mph85%30.20 "Hg11 mi
6:00 PM53 °FOvercast.2 mph82%30.20 "Hg12 mi
4:00 PM54 °FOvercast.3 mph79%30.20 "Hg19 mi
3:00 PM54 °FOvercast.3 mph75%30.21 "Hg22 mi
2:00 PM55 °FOvercast.3 mph71%30.21 "Hg22 mi
1:00 PM55 °FPartly sunny.5 mph69%30.21 "Hg22 mi
12:00 PM53 °FPartly sunny.3 mph76%30.21 "Hg22 mi
10:00 AM49 °FScattered clouds.3 mph84%30.20 "Hg19 mi
9:00 AM45 °FScattered clouds.2 mph90%30.19 "Hg19 mi
Weather by CustomWeather, © 2014

See weather overviewHow to use our weather pages